Tracking 35331 objects as of 14-Sep-2026
HD Live streaming from Space Station
objects crossing your sky now

SL-12 R/B(AUX MOTOR)


SL-12 R/B(AUX MOTOR) is no longer on orbit


NORAD ID: 28186
Int'l Code: 2004-010D
Launch date: March 27, 2004
Source: Commonwealth of Independent States (former USSR) (CIS)
Launch site: TYURATAM MISSILE AND SPACE COMPLEX (TTMTR)
Decay date: 2004-09-10

Note: This is a ROCKET BODY
Your satellite tracking list
Your tracking list is empty




NASA's NSSDC Master Catalog

Two Line Element Set (TLE):
1 28186U 04010D   04254.23804868  .99999999  11129-4  31736-1 0  9995
2 28186 046.8698 182.2714 0501808 070.2485 295.0655 15.31524896  4506
Source of the keplerian elements: AFSPC